Starlink 35496

operational
NORAD ID: 66114 Int'l Des: 2025-237 Owner: SPXS Country: US Constellation: starlink
LEOCIRCULAR

Starlink 35496について

説明を読み込み中...

リアルタイム位置

3D地球を読み込み中...

次回通過

高度履歴

Altitude vs Time

uPlot chart will show altitude changes over time

軌道要素

1 66114C 25237A 25298.72965278 -.01126800 00000+0 -20157-2 0 2987
2 66114 53.1554 319.2319 0000741 65.0969 162.2424 16.02140946 13
Epoch: Oct 25, 2025 • Age: 166 hours

現在のステータス

高度 294.7 km
速度 7.73 km/s
衛星直下点 14.66°N, 86.21°E
打ち上げ日 Oct 22, 2025
運用期間 9 days
タイプ internet

技術仕様

分類 Payload
質量 575.00 kg
乾燥質量 530.00 kg
総質量 575.00 kg
長さ 0.30 m
直径 4.10 m
スパン 29.00 m
形状 Box + pan
製造者 SPXS
バスタイプ Starlink V2MO
フェーズステータス In Orbit
所有者/国 SPXS/US

大規模コンステレーション

Loading constellations...